Regional Weather Roundup
Issued by NWS Wakefield, VA

Home | Current Version | Previous Version | Graphics & Text | Print | Product List | Glossary On
Versions: 1 2 3 4 5 6 7 8 9 10 11 12 13 14 15 16 17 18 19 20 21 22 23 24 25 26 27 28 29 30 31 32 33 34 35 36 37 38 39 40 41 42 43 44 45 46 47 48 49 50
000
ASUS41 KAKQ 281515
RWRAKQ

REGIONAL WEATHER ROUNDUP
NATIONAL WEATHER SERVICE WAKEFIELD VA
1100 AM EDT THU JUL 28 2016

Note: "fair" indicates few or no clouds below 12,000 feet with no
significant weather and/or obstructions to visibility. * = Denotes
station may not report precipitation (e.g., rain,snow,etc.),
thunder or fog.

VAZ042-051-052>054-056-281600-
NORTHERN VIRGINIA

CITY           SKY/WX    TMP DP  RH WIND       PRES   REMARKS
WASH NATIONAL  PTSUNNY   88  75  65 S8        29.90R HX  97
DULLES         PTSUNNY   88  71  57 N3        29.91S
FORT BELVOIR   NOT AVBL
QUANTICO       PTSUNNY   84  74  71 S5        29.90S
FREDERICKSBRG* FAIR      83  75  77 CALM      29.90S
STAFFORD*      FAIR      82  74  76 CALM      29.95S
WARRENTON      FAIR      85  70  61 CALM      29.91R
CULPEPER*      FAIR      82  76  81 CALM      29.93R
MANASSAS*      SUNNY     82  72  69 CALM      29.91R
LEESBURG*      FAIR      86  75  70 W3        29.93R HX  95
WINCHESTER     FAIR      81  72  74 S3        29.93S
FRONT ROYAL*   FAIR      79  73  83 S3        29.93S
LURAY*         NOT AVBL
$$

VAZ048-049-060>072-079>083-281600-
CENTRAL AND SOUTH CENTRAL VIRGINIA

CITY           SKY/WX    TMP DP  RH WIND       PRES   REMARKS
RICHMOND       PTSUNNY   85  74  69 S7        29.90S
CHESTERFIELD*  FAIR      88  66  48 SW5       29.92F
PETERSBURG*    FAIR      90  75  61 S5        29.92S HX  99
HANOVER        FAIR      88  73  61 S6        29.92S HX  95
TAPPAHANNOCK*  FAIR      89  72  56 S3        29.91S HX  95
QUINTON*       FAIR      86  75  68 CALM      29.90S HX  95
CHARLOTTSVILLE FAIR      86  73  65 CALM      29.93S
GORDONSVILLE*  FAIR      82  76  83 CALM      29.92S
ORANGE*          N/A     81  77  89 CALM      29.94S
LOUISA*        FAIR      84  79  84 CALM      29.92R HX  96
BUMPASS*       FAIR      80  76  86 CALM      29.92S
FARMVILLE*     FAIR      87  76  67 SW3       29.91S HX  97
CREWE*         NOT AVBL
FORT PICKETT*  FAIR      87  78  73 S7        29.93S HX  99
CHASE CITY*    FAIR      86  74  67 CALM      29.94S
CLARKSVILLE*   FAIR      86  75  70 CALM      29.93F HX  95
SOUTH HILL*    FAIR      86  75  70 SW5       29.99S HX  95
LAWRENCEVILLE* FAIR      87  76  68 SW3       29.92F HX  97
EMPORIA*       FAIR      88  73  62 SE3       29.93F HX  96
$$

VAZ088>098-281600-
SOUTHEAST VIRGINIA

CITY           SKY/WX    TMP DP  RH WIND       PRES   REMARKS
NORFOLK        FAIR      90  78  68 NE6       29.90F HX 104
VIRGINIA BEACH PTSUNNY   95  78  58 SW6       29.90S HX 111
NORFOLK NAVAL  FAIR      90  76  63 SW6       29.92S HX 101
WEST POINT*    FAIR      88  75  65 S6        29.91S HX  97
SALUDA*        FAIR      87  79  77 S5        29.90S HX 101
NEWPORT NEWS   FAIR      89  78  70 VRB6      29.90F HX 103
LANGLEY AFB    NOT AVBL
FORT EUSTIS    NOT AVBL
WILLIAMSBURG*  FAIR      90  77  66 S6        29.91F HX 102
HR EXEC AP*    FAIR      88  79  74 CALM      29.93S HX 102
FRANKLIN*      FAIR      88  76  69 S5        29.91F HX  98
US460-WAKEFLD  FAIR      86  76  71 S5        29.91F HX  96
$$

VAZ020-022-025-037-045-281600-
WEST CENTRAL AND SOUTHWEST VIRGINIA

CITY           SKY/WX    TMP DP  RH WIND       PRES   REMARKS
STAUNTON*      FAIR      80  72  78 CALM      29.98S
WAYNESBORO*    FAIR      83  71  68 S3        29.98S
HOT SPRINGS VA FAIR      75  66  73 SW6       30.11S
LYNCHBURG      FAIR      84  73  69 CALM      29.96F
DANVILLE       FAIR      84  73  69 VRB3      29.94F
SOUTH BOSTON*  FAIR     N/A N/A N/A CALM      29.94S
MARTINSVILLE   FAIR      85  73  66 CALM      29.98F
ROANOKE        FAIR      85  71  63 W6        29.98F
BLACKSBURG     PTSUNNY   80  72  77 NW5       30.06F
DUBLIN*        CLOUDY    82  69  65 W6        30.04F
MARION*        CLOUDY    78  71  80 W14       30.09S
HILLSVILLE*    CLOUDY    77  70  79 W7        30.06F
RICHLANDS*     CLOUDY    76  72  85 S6        30.06F
WISE*          CLOUDY    73  68  83 SW8       30.06F
ABINGDON*      CLOUDY    78  72  82 SW6       30.05S
$$

MDZ021>025-VAZ099-100-281600-
SOUTHERN MARYLAND AND THE DELMARVA PENINSULA

CITY           SKY/WX    TMP DP  RH WIND       PRES   REMARKS
PATUXENT RIVER CLOUDY    86  74  67 SE9       29.89S
BAY BRIDGE APT CLOUDY    88  79  74 S5        29.89S HX 102
LEONARDTOWN    CLOUDY    86  72  62 MISG        N/A
DOVER          NOT AVBL
GEORGETOWN     SUNNY     91  74  57 S8        29.90F HX 100
EASTON         PTSUNNY   90  81  74 S5        29.93S HX 108
CAMBRIDGE      SUNNY     88  73  62 SE7       29.89S HX  96
SALISBURY      MOSUNNY   89  78  70 SE6       29.90F HX 103
OCEAN CITY     MOSUNNY   84  78  82 S6        29.92S HX  95
WALLOPS ISLAND PTSUNNY   87  78  74 SE10      29.91F HX 100
ACCOMACK*      NOT AVBL
$$

NCZ012>017-030>032-281600-
NORTH CENTRAL AND EASTERN NORTH CAROLINA

CITY           SKY/WX    TMP DP  RH WIND       PRES   REMARKS
ROANOKE RAPIDS FAIR      84  75  74 CALM      29.93S
RALEIGH        MOSUNNY   89  76  65 SW6       29.94F HX 100
ELIZABETH CITY SUNNY     89  79  72 SW6       29.92S HX 104
AHOSKIE*       SUNNY     86  78  78 SE3       29.92F HX  98
EDENTON*       SUNNY     88  76  69 W3        29.93S HX  99
CURRITUCK*     SUNNY     89  78  71 SW5       29.92F HX 103
KILL DEVIL HLS SUNNY     91  77  63 S5        29.92S HX 103
MANTEO           N/A     86  80  81 SW7       29.93F HX 100
CAPE HATTERAS  SUNNY     85  80  85 SW10      29.95R HX  99
TARBORO*       FAIR      89  79  73 SW5       29.93F HX 104
GOLDSBORO      NOT AVBL
WASHINGTON     SUNNY     89  79  73 W3        29.93S HX 104
GREENVILLE     SUNNY     91  79  66 W5        29.95S HX 107
NEW BERN       SUNNY     92  78  63 SW6       29.95S HX 107
WILMINGTON     SUNNY     92  75  57 W8        29.96F HX 103
$$

VAZ048-281600-
ELSEWHERE

CITY           SKY/WX    TMP DP  RH WIND       PRES   REMARKS
HARRISBURG PA  CLOUDY    83  71  67 CALM      29.91S
BALTIMORE      CLOUDY    89  72  56 CALM      29.89S HX  96
ANNAPOLIS        N/A    N/A N/A N/A MISG      29.89S
ANDREWS AFB    NOT AVBL
PHILADELPHIA   PTSUNNY   89  66  46 VRB3      29.91F
GREENSBORO     MOSUNNY   87  72  60 CALM      29.96F
ROCKY MOUNT    SUNNY     90  79  70 S5        29.93F HX 106
$$

VAZ100-281600-
MARINE

STATION/POSITION TIME  TEMP    WIND        PRES    WAVE   SWELL
                       AIR SEA DIR/SP/G            HT/PER HT/PER
                 (UTC) (F)     (DEG/KT/KT) (MB)    (FT/S) (FT/S)
BRANDYWINE LGT   1406   79     160/  4/  5   N/A
CAPE MAY NJ      1400   81 74  220/  7/  7 1012.7R
LEWES DE         1400   84 74   20/  4/  5 1012.8F
OCEAN-CITY-INLET 1400   77 74  190/  3/  4 1013.6R
WACHAPREAGUE VA  1400   83 87  170/  4/  7 1012.8F
THOMAS POINT MD  1500   83 85  160/  4/  5 1013.6F
GOOSES REEF MD   1500   85 86  170/  4/  6 1013.1F   0
COVE POINT MD    1400   83     170/  4/  6 1012.9F
SOLOMONS ISLAND  1400   87 86   CALM  /  1   N/A
BISHOPS HEAD MD  1400   85     140/  8/  9 1012.8F
PINEY POINT MD   1400          120/  3/  3   N/A
POTOMAC MD       1500   84 87  110/  6/  8 1011.1F   0
CAMBRIDGE MD     1400   87 88  160/  3/  7 1011.6F
LEWISETTA VA     1400   84 87   90/  4/  5 1012.0F
RAPPAHANNOCK LGT 1400           CALM  /  1 1013.3F
STINGRAY PT      1500   84 86   90/  4/  6 1013.0F   0
YORK RVR RNG VA  1400   87      CALM  /  1 1012.4F
YORKTOWN VA      1400   85 84   10/  2/  2 1012.4F
JAMESTOWN VA     1500   85 89  120/  2/  4   N/A     0
DOMINION TERM VA 1400   83     200/  3/  4 1013.1S
KIPTOPEKE VA     1400      80  190/  3/  4   N/A
CHES BAY BRIDGE  1400   83 81  350/  1/  2 1012.8F
CAPE HENRY VA    1400   84      70/  3/  3   N/A
WILLOUBY STN VA  1400   83     250/  4/  4   N/A
CAPE HENRY BUOY  1412      76                N/A     1/ 7
1ST LANDING BUOY 1500   84 82   90/  4/  4 1012.3F   1
CAPE CHARLES BUO 1426      79                N/A     1/ 8
OFFSHORE WE BUOY 1421      83                N/A     1/ 8
64NM E OF VA BCH 1450   82 83  210/  6/  8 1013.1F   2/ 8   2/ 8
DUCK PIER NC     1400   83 76  210/  4/  7 1012.8S
44100 DUCK FRF   1405      79                N/A     1/ 8
44056 DUCK FRF   1411      79                N/A     1/ 8
OREGON INLET NC  1400   84 84  190/  5/  5 1013.6F
HATTERAS NC      1400   85 82  220/  7/ 11 1013.6F
DIAMOND SHLS NC  1450   85 84  240/ 12/ 14 1014.0F   2/ 6   2/ 7
CAPE LOOKOUT NC  1500   85     240/ 10/ 13 1013.8F
$$



USA.gov is the U.S. government's official web portal to all federal, state and local government web resources and services.